Wind_Speed
14 14 15 18 21 25 28 29 30 35 35 35 36 37 37 37 36 36 35 34 33 32 31 31 31 32 33 33 33 34 33 31 30 28 25 23 21 19 18 17 17 18 19 21
8 10 12 14 16 19 22 24 27 32 34 35 36 36 37 37 36 35 34 33 31 30 30 30 31 32 33 34 35 35 34 32 30 27 25 22 19 17 16 16 17 18 20 21
4 7 7 8 10 11 15 17 21 26 29 30 31 30 32 33 32 32 31 30 29 29 30 31 33 34 35 35 36 35 33 32 30 27 25 22 20 19 19 19 20 21 21 22
4 5 5 6 7 7 9 15 17 20 20 20 24 20 25 28 28 29 30 30 30 30 31 32 33 34 35 35 35 34 33 33 30 28 26 24 23 23 22 23 24 24 24 24
6 6 6 7 9 10 12 13 14 15 16 17 19 17 18 26 25 26 27 27 27 28 28 30 31 32 33 33 34 34 33 32 31 29 28 27 27 27 26 27 27 27 26 26
8 8 9 10 11 12 13 13 13 13 13 13 16 14 15 22 21 21 22 23 23 24 26 27 29 30 31 33 33 35 34 33 32 31 31 31 31 31 31 30 30 29 28 27
7 8 9 9 9 12 12 11 10 10 10 11 16 14 17 19 18 18 19 19 20 21 23 26 28 30 32 33 34 35 36 35 34 34 34 34 34 34 34 33 32 31 30 29
5 6 9 9 9 10 12 11 11 11 11 13 16 15 18 18 18 19 20 21 22 23 25 27 29 31 33 35 37 38 38 38 37 37 37 37 37 36 35 34 33 32 31 30
5 7 11 10 10 11 11 11 13 14 14 14 13 18 19 19 20 21 21 23 24 26 28 30 32 33 35 37 38 39 40 41 41 40 39 39 38 38 37 36 35 33 32 31
6 7 9 11 11 10 11 12 12 13 14 14 14 17 21 21 21 23 25 27 29 31 33 34 35 37 38 40 42 43 44 45 45 44 43 42 41 40 38 37 36 35 34 32
6 7 8 11 11 12 13 13 13 14 16 17 17 20 23 23 25 27 29 31 33 35 37 39 41 42 43 45 46 47 48 49 49 48 47 46 45 43 42 40 39 38 36 35
6 8 8 11 13 13 14 15 16 17 18 20 21 25 24 27 29 31 33 35 37 39 41 43 45 46 47 48 49 51 51 52 53 53 52 51 50 49 47 45 42 40 39 37
8 10 11 12 17 18 17 17 18 20 22 23 25 30 30 32 34 36 37 39 41 42 44 46 47 48 50 51 52 53 54 55 56 56 56 56 56 55 54 51 47 46 44 41
11 12 13 13 15 18 20 22 22 24 25 27 29 34 35 37 39 40 41 43 44 45 47 48 49 50 51 53 54 56 57 59 60 60 61 61 62 61 59 57 54 52 50 47
14 15 16 17 19 21 22 24 25 27 29 32 34 37 40 41 42 43 45 46 47 47 49 50 51 52 54 56 58 60 63 65 67 68 68 68 67 66 65 63 60 58 56 53
16 17 18 19 21 24 25 26 28 30 32 34 37 39 40 42 44 44 45 47 48 50 52 54 56 58 61 63 65 68 70 72 74 74 75 76 75 74 72 70 67 65 63 60
17 19 20 22 24 26 28 28 30 32 34 36 38 40 42 43 44 46 49 52 55 57 60 62 65 67 69 71 74 76 78 80 81 82 82 83 82 81 78 76 73 71 69 66
19 21 22 24 26 28 29 30 32 34 34 36 39 42 44 47 50 53 56 59 61 64 67 70 73 75 76 77 79 80 81 82 83 83 83 84 84 83 81 80 78 76 73 69
21 23 24 26 28 31 30 32 34 36 38 41 43 46 50 53 56 59 63 66 69 72 74 75 75 75 74 73 72 71 71 70 71 72 73 73 73 73 73 72 72 70 68 65
22 24 26 28 29 32 35 36 38 41 44 47 50 53 56 60 63 65 69 72 74 74 73 70 67 64 60 57 55 53 51 50 51 51 52 53 53 53 54 55 55 56 56 56
25 27 27 29 32 34 36 39 41 44 48 52 55 59 62 66 69 71 73 73 71 67 62 57 52 47 43 40 39 37 36 35 35 34 34 33 34 34 35 37 39 40 42 44
27 29 31 32 34 37 40 42 44 48 52 56 60 63 67 70 71 71 69 65 59 53 48 44 39 36 34 33 33 32 31 31 32 31 29 28 28 28 28 27 28 29 31 33
29 31 32 34 36 39 43 46 49 53 56 60 65 68 70 71 69 65 60 54 48 43 39 36 34 33 33 33 34 34 34 34 33 32 30 28 26 26 25 25 26 27 28 29
31 33 35 37 39 42 46 49 53 57 61 65 68 70 70 67 63 57 50 45 41 37 36 36 37 37 37 37 37 37 37 37 36 34 32 30 29 28 27 26 26 26 27 29
34 36 38 40 43 45 48 53 57 61 65 68 69 68 65 61 54 48 43 40 38 37 38 40 41 41 41 41 41 41 40 40 39 37 35 33 31 30 29 27 26 26 26 28
36 38 40 43 46 49 52 56 60 64 67 69 68 65 59 54 48 44 41 40 40 40 42 43 44 45 45 45 44 43 43 42 41 39 37 34 33 31 30 28 27 26 26 28
Wind_Direction
270 264 257 250 244 241 241 239 241 245 248 250 252 256 260 263 266 268 270 271 271 271 273 274 277 281 285 288 290 292 295 294 295 295 295 294 292 292 294 297 301 304 307 309
281 271 265 260 253 247 246 244 246 250 252 254 257 260 264 267 269 270 271 270 269 269 269 271 276 279 282 284 286 288 292 292 292 293 294 292 292 293 296 301 305 307 309 311
284 280 281 273 265 256 252 249 251 255 259 263 265 269 271 269 270 270 270 269 268 269 270 273 275 277 279 280 283 285 287 288 291 290 291 290 291 293 296 299 302 306 308 311
301 300 301 295 285 277 272 264 264 267 269 270 272 269 276 275 272 271 271 271 270 270 271 272 272 274 276 277 279 280 282 286 288 289 290 290 291 291 291 294 296 300 304 308
285 292 297 291 286 283 274 279 278 278 278 276 279 275 269 278 276 275 275 274 273 272 271 272 272 273 274 275 278 279 283 284 285 287 288 289 288 288 288 289 291 293 296 301
292 294 289 285 289 287 287 291 294 297 295 286 279 279 267 278 282 281 280 279 277 276 275 274 273 273 272 274 275 278 281 283 284 285 287 287 286 285 286 286 287 289 291 296
308 306 298 293 297 299 297 299 307 305 298 284 288 287 269 284 287 286 285 283 281 278 276 275 273 272 273 274 276 280 283 283 283 284 284 284 284 283 284 284 285 287 289 292
321 307 299 300 295 289 292 290 286 278 277 278 294 291 284 290 291 290 287 285 281 278 276 275 275 275 276 278 279 281 282 282 282 282 282 281 281 282 283 283 284 286 288 290
296 288 302 306 305 302 300 292 284 286 290 291 284 285 289 288 289 288 286 283 280 279 277 276 276 276 276 277 278 278 280 281 281 281 280 280 280 282 283 283 284 285 287 289
298 295 302 312 316 315 308 304 300 295 289 286 286 290 286 288 285 283 282 281 281 280 279 278 277 277 277 277 277 278 279 280 281 281 281 281 281 282 283 283 284 285 286 288
319 320 316 317 318 315 315 311 306 298 292 289 284 279 284 287 285 283 282 282 281 280 279 278 278 277 277 277 277 278 278 279 280 281 281 281 281 282 282 283 284 285 286 287
331 331 325 318 318 317 316 315 312 305 301 299 297 289 292 288 288 287 285 284 282 281 279 278 278 277 277 277 277 277 277 278 278 279 280 281 282 282 282 282 283 285 286 286
336 333 332 329 321 321 319 316 312 308 305 303 301 295 301 297 294 292 290 288 287 285 283 282 281 279 279 278 278 277 277 276 277 278 278 279 280 281 281 280 281 282 283 283
333 329 324 318 307 310 314 315 315 312 309 306 303 299 303 301 299 297 295 293 291 289 287 285 283 282 280 279 278 278 278 277 277 277 277 278 278 278 279 279 279 279 280 279
328 326 322 319 316 315 315 315 314 311 309 306 304 301 303 302 301 299 297 295 293 292 291 289 287 284 283 281 280 280 279 277 276 274 273 273 273 273 274 275 275 276 276 277
327 325 324 321 319 317 317 318 314 312 310 308 306 304 304 303 302 300 299 297 296 294 292 290 288 285 283 281 279 277 276 274 273 272 272 270 269 269 270 270 271 272 273 275
330 329 328 325 322 319 320 320 316 314 312 310 308 308 307 306 305 304 302 300 298 296 293 291 288 285 282 280 278 277 276 275 273 273 274 273 273 272 271 271 272 273 273 274
332 331 329 327 323 321 322 320 317 315 314 312 310 309 308 307 306 305 302 300 298 296 294 292 290 288 286 284 282 281 279 278 276 275 274 274 274 273 273 273 272 272 272 272
333 331 329 327 324 321 324 321 319 317 315 313 312 311 310 308 307 306 304 303 301 299 298 296 295 294 292 291 289 287 285 283 281 279 278 276 275 273 272 271 270 269 267 266
332 331 329 327 325 323 323 321 320 318 317 316 315 314 312 311 310 309 307 305 304 303 302 301 300 299 299 298 297 295 293 291 288 285 282 280 278 275 272 269 266 264 261 259
330 330 328 326 323 321 321 321 321 320 319 317 316 316 315 314 312 311 309 308 307 307 306 306 306 306 307 306 305 305 304 301 298 295 292 289 285 280 275 269 264 259 256 254
329 327 326 325 324 324 324 322 321 320 319 319 318 317 316 315 314 313 312 311 310 310 311 310 311 312 312 311 309 309 307 304 300 299 296 292 287 282 277 270 261 255 252 248
327 326 325 325 325 324 324 323 323 323 322 321 321 320 319 318 317 316 315 314 314 314 313 312 312 312 311 309 307 307 306 303 300 298 296 293 288 284 279 273 266 258 252 246
326 326 326 326 327 327 326 325 325 325 325 324 324 323 321 320 319 318 317 316 315 314 312 311 310 309 308 306 304 303 301 299 298 296 293 289 286 282 278 273 268 262 255 246
327 327 328 328 328 328 328 328 328 328 327 326 326 325 323 321 321 320 319 318 316 314 312 310 310 308 307 304 302 300 298 296 294 292 289 286 282 279 277 272 266 261 257 250
329 329 329 329 329 330 331 330 329 329 329 329 328 327 325 323 323 322 321 319 317 315 313 311 310 308 305 303 301 299 296 294 292 290 285 281 278 275 272 268 263 259 256 251
Height
5871 5873 5873 5874 5876 5877 5880 5883 5884 5884 5885 5888 5888 5888 5888 5888 5888 5888 5888 5888 5888 5887 5885 5884 5882 5880 5878 5876 5873 5871 5869 5866 5865 5863 5861 5858 5856 5854 5852 5849 5847 5845 5842 5840
5870 5870 5871 5871 5872 5874 5876 5878 5879 5879 5879 5881 5881 5882 5882 5881 5882 5882 5882 5881 5881 5880 5878 5877 5875 5874 5871 5869 5867 5865 5862 5860 5858 5856 5854 5852 5850 5848 5846 5844 5841 5839 5836 5834
5869 5869 5869 5869 5870 5871 5872 5874 5874 5874 5874 5875 5876 5876 5875 5874 5874 5874 5874 5874 5874 5873 5872 5870 5868 5866 5864 5862 5860 5857 5856 5854 5852 5850 5848 5846 5844 5842 5840 5838 5835 5833 5830 5828
5868 5868 5868 5869 5869 5869 5871 5869 5869 5869 5870 5872 5871 5873 5870 5867 5868 5867 5867 5867 5866 5866 5864 5863 5861 5858 5856 5854 5852 5850 5848 5847 5845 5843 5842 5840 5838 5836 5834 5832 5829 5827 5824 5821
5868 5867 5867 5867 5867 5866 5866 5866 5866 5865 5866 5866 5866 5867 5869 5861 5861 5860 5860 5859 5858 5857 5856 5854 5853 5851 5849 5847 5845 5842 5841 5840 5838 5837 5835 5833 5831 5829 5828 5825 5823 5820 5818 5815
5866 5865 5865 5865 5864 5863 5863 5863 5862 5862 5863 5864 5861 5862 5863 5856 5855 5854 5853 5852 5851 5850 5849 5847 5845 5844 5841 5839 5837 5835 5833 5832 5831 5829 5828 5826 5824 5822 5820 5818 5816 5813 5811 5808
5866 5865 5863 5862 5862 5862 5861 5862 5863 5863 5862 5861 5857 5856 5856 5851 5850 5848 5847 5846 5845 5843 5842 5840 5838 5836 5834 5832 5830 5827 5826 5824 5823 5821 5820 5818 5816 5814 5812 5810 5808 5805 5803 5800
5866 5866 5863 5861 5860 5859 5859 5859 5860 5860 5860 5858 5854 5852 5849 5846 5845 5843 5842 5840 5839 5837 5835 5833 5831 5829 5827 5824 5822 5819 5817 5815 5814 5813 5811 5809 5807 5805 5803 5801 5799 5796 5794 5792
5865 5864 5861 5858 5857 5857 5856 5856 5855 5854 5853 5852 5852 5848 5844 5842 5840 5838 5836 5834 5832 5831 5829 5826 5824 5821 5818 5816 5813 5810 5808 5805 5804 5802 5801 5799 5797 5795 5793 5791 5789 5787 5784 5782
5862 5861 5860 5857 5856 5855 5854 5852 5851 5850 5849 5849 5849 5846 5842 5837 5835 5832 5830 5828 5825 5823 5820 5818 5815 5812 5809 5806 5803 5800 5797 5795 5793 5791 5789 5787 5786 5784 5782 5780 5778 5776 5774 5772
5860 5859 5859 5856 5854 5852 5851 5850 5848 5847 5845 5844 5843 5843 5836 5832 5829 5826 5823 5820 5817 5814 5811 5808 5805 5802 5798 5795 5792 5789 5785 5783 5780 5777 5776 5774 5773 5771 5770 5768 5766 5765 5763 5761
5859 5858 5856 5855 5852 5850 5848 5846 5844 5843 5840 5838 5836 5835 5830 5825 5822 5819 5815 5812 5808 5804 5800 5797 5793 5789 5785 5782 5779 5775 5772 5769 5766 5763 5761 5759 5758 5756 5755 5754 5753 5752 5751 5750
5857 5856 5854 5853 5851 5847 5844 5842 5840 5837 5835 5832 5829 5827 5822 5817 5813 5810 5806 5801 5797 5793 5789 5784 5780 5776 5772 5768 5764 5760 5757 5754 5751 5748 5745 5743 5741 5740 5739 5738 5738 5738 5738 5737
5855 5853 5852 5851 5848 5844 5840 5837 5834 5832 5828 5825 5822 5817 5812 5808 5803 5799 5794 5790 5785 5780 5775 5771 5766 5761 5757 5752 5748 5744 5740 5736 5733 5730 5727 5725 5723 5722 5721 5721 5721 5722 5722 5723
5852 5851 5848 5845 5842 5839 5836 5833 5829 5826 5822 5818 5814 5808 5803 5797 5792 5787 5781 5776 5770 5765 5760 5755 5750 5745 5740 5735 5730 5726 5721 5717 5714 5710 5707 5705 5703 5702 5702 5702 5702 5703 5705 5706
5849 5847 5845 5842 5838 5834 5831 5828 5824 5820 5815 5810 5804 5799 5793 5786 5780 5774 5768 5762 5756 5750 5744 5738 5732 5727 5722 5716 5711 5706 5701 5697 5692 5688 5685 5682 5680 5679 5680 5680 5682 5683 5686 5688
5846 5843 5841 5838 5833 5829 5825 5822 5816 5812 5807 5801 5795 5789 5782 5775 5768 5762 5754 5747 5740 5733 5726 5719 5712 5706 5700 5694 5688 5683 5678 5673 5668 5664 5661 5657 5656 5655 5655 5656 5658 5660 5664 5667
5842 5839 5836 5833 5829 5824 5823 5815 5810 5804 5798 5792 5785 5778 5771 5763 5756 5748 5739 5730 5722 5714 5706 5697 5689 5681 5674 5667 5660 5655 5650 5644 5640 5637 5634 5632 5631 5630 5630 5632 5634 5637 5641 5646
5838 5835 5831 5828 5823 5817 5814 5808 5801 5795 5789 5782 5774 5766 5758 5749 5741 5732 5721 5711 5701 5691 5682 5672 5663 5654 5646 5638 5631 5626 5621 5616 5612 5608 5606 5604 5604 5604 5604 5606 5609 5613 5617 5622
5834 5831 5827 5821 5817 5812 5806 5799 5791 5786 5777 5769 5761 5752 5743 5733 5724 5715 5702 5690 5678 5667 5657 5647 5638 5630 5622 5615 5608 5603 5599 5594 5590 5587 5584 5583 5581 5581 5581 5583 5586 5589 5594 5600
5830 5826 5822 5817 5811 5805 5799 5791 5784 5777 5769 5758 5748 5738 5727 5716 5705 5693 5680 5668 5656 5645 5635 5626 5618 5612 5606 5600 5594 5589 5585 5580 5576 5572 5570 5568 5567 5566 5566 5566 5568 5571 5575 5580
5826 5821 5816 5811 5804 5799 5790 5782 5775 5767 5756 5745 5734 5723 5711 5698 5685 5672 5659 5647 5637 5627 5619 5611 5605 5600 5595 5590 5584 5580 5575 5571 5567 5564 5561 5559 5557 5556 5555 5555 5556 5558 5561 5565
5821 5816 5810 5805 5799 5790 5781 5772 5763 5753 5743 5731 5719 5707 5693 5679 5666 5654 5642 5632 5623 5615 5608 5601 5596 5591 5586 5581 5575 5570 5566 5562 5558 5555 5552 5550 5549 5547 5546 5546 5547 5548 5550 5553
5815 5809 5803 5796 5788 5781 5771 5761 5752 5741 5729 5717 5703 5690 5676 5662 5650 5638 5628 5619 5612 5605 5598 5593 5587 5581 5576 5571 5565 5560 5556 5551 5548 5545 5543 5541 5539 5538 5538 5537 5537 5538 5540 5543
5808 5801 5794 5787 5780 5772 5762 5751 5740 5729 5717 5703 5689 5674 5659 5647 5636 5625 5617 5609 5602 5595 5589 5582 5576 5570 5564 5558 5553 5548 5543 5539 5535 5533 5531 5529 5528 5528 5527 5527 5528 5529 5531 5533
5801 5794 5787 5779 5771 5762 5753 5741 5729 5717 5704 5690 5675 5661 5647 5633 5623 5615 5607 5600 5592 5585 5578 5571 5564 5557 5550 5544 5539 5534 5529 5525 5521 5519 5517 5516 5516 5516 5516 5517 5517 5519 5521 5523